When you browse on this site, cookies collect data to enhance your experience and personalize the content and advertising you see.
Visit our Privacy Policy to learn more. By continuing to use the site, you agree to this use of cookies and data.
  • In Czech Republic
  • List of Countries
  • For 7 days
  • Water Temperature
  • Weather Map
  • Weather Widgets
  • user-avatar
    Login

    Hourly Weather Oran

    Today, 24 September, Tuesday

    Time Temperature Precipitation Wind Pressure Humidity
    00:00 +26°C° 0 mm 1 mps 754 mmHg 56%
    01:00 +26°C° 0 mm 1 mps 754 mmHg 57%
    02:00 +25°C° 0 mm 1 mps 753 mmHg 59%
    03:00 +25°C° 0 mm 1 mps 753 mmHg 60%
    04:00 +23°C° 0 mm 0 mps 753 mmHg 62%
    05:00 +22°C° 0 mm 0 mps 753 mmHg 64%
    06:00 +22°C° 0 mm 0 mps 753 mmHg 65%
    07:00 +23°C° 0 mm 0 mps 753 mmHg 60%
    08:00 +26°C° 0 mm 1 mps 754 mmHg 55%
    09:00 +27°C° 0 mm 1 mps 754 mmHg 50%
    10:00 +29°C° 0 mm 1 mps 754 mmHg 47%
    11:00 +30°C° 0 mm 1 mps 754 mmHg 44%
    12:00 +31°C° 0 mm 1 mps 753 mmHg 42%
    13:00 +31°C° 0 mm 2 mps 753 mmHg 41%
    14:00 +31°C° 0 mm 2 mps 753 mmHg 41%
    15:00 +31°C° 0 mm 2 mps 752 mmHg 41%
    16:00 +30°C° 0 mm 2 mps 752 mmHg 44%
    17:00 +30°C° 0 mm 2 mps 752 mmHg 47%
    18:00 +29°C° 0 mm 2 mps 752 mmHg 50%
    19:00 +28°C° 0 mm 1 mps 752 mmHg 51%
    20:00 +28°C° 0 mm 1 mps 752 mmHg 53%
    21:00 +27°C° 0 mm 1 mps 752 mmHg 55%
    22:00 +27°C° 0 mm 1 mps 752 mmHg 56%
    23:00 +26°C° 0 mm 1 mps 752 mmHg 57%

    Tomorrow, 25 September, Wednesday

    Time Temperature Precipitation Wind Pressure Humidity
    00:00 +26°C° 0 mm 2 mps 751 mmHg 59%
    01:00 +26°C° 0 mm 2 mps 751 mmHg 59%
    02:00 +26°C° 0 mm 2 mps 751 mmHg 60%
    03:00 +25°C° 0 mm 2 mps 750 mmHg 60%
    04:00 +25°C° 0 mm 2 mps 751 mmHg 61%
    05:00 +25°C° 0 mm 2 mps 751 mmHg 61%
    06:00 +25°C° 0 mm 2 mps 751 mmHg 61%
    07:00 +26°C° 0 mm 3 mps 751 mmHg 52%
    08:00 +28°C° 0 mm 3 mps 752 mmHg 43%
    09:00 +30°C° 0 mm 4 mps 752 mmHg 33%
    10:00 +32°C° 0 mm 5 mps 752 mmHg 31%
    11:00 +33°C° 0 mm 5 mps 752 mmHg 28%
    12:00 +34°C° 0 mm 6 mps 752 mmHg 25%
    13:00 +34°C° 0 mm 6 mps 751 mmHg 27%
    14:00 +33°C° 0 mm 6 mps 751 mmHg 29%
    15:00 +33°C° 0 mm 6 mps 750 mmHg 31%
    16:00 +32°C° 0 mm 5 mps 750 mmHg 37%
    17:00 +30°C° 0 mm 4 mps 751 mmHg 43%
    18:00 +28°C° 0 mm 3 mps 751 mmHg 50%
    19:00 +28°C° 0 mm 3 mps 751 mmHg 53%
    20:00 +27°C° 0 mm 3 mps 751 mmHg 57%
    21:00 +27°C° 0 mm 3 mps 752 mmHg 60%
    22:00 +26°C° 0 mm 3 mps 752 mmHg 61%
    23:00 +26°C° 0 mm 2 mps 752 mmHg 62%

    Day after tomorrow, 26 September, Thursday

    Time Temperature Precipitation Wind Pressure Humidity
    00:00 +26°C° 0 mm 2 mps 751 mmHg 63%
    01:00 +25°C° 0 mm 2 mps 751 mmHg 65%
    02:00 +25°C° 0 mm 1 mps 751 mmHg 67%
    03:00 +24°C° 0 mm 1 mps 752 mmHg 69%
    04:00 +24°C° 0 mm 1 mps 752 mmHg 70%
    05:00 +22°C° 0 mm 0 mps 752 mmHg 70%
    06:00 +21°C° 0 mm 0 mps 752 mmHg 71%
    07:00 +23°C° 0 mm 0 mps 752 mmHg 64%
    08:00 +25°C° 0 mm 0 mps 753 mmHg 56%
    09:00 +26°C° 0 mm 0 mps 753 mmHg 49%
    10:00 +29°C° 0 mm 1 mps 753 mmHg 44%
    11:00 +31°C° 0 mm 1 mps 753 mmHg 39%
    12:00 +32°C° 0 mm 2 mps 753 mmHg 34%
    13:00 +32°C° 0 mm 2 mps 753 mmHg 36%
    14:00 +33°C° 0 mm 3 mps 752 mmHg 37%
    15:00 +33°C° 0 mm 3 mps 752 mmHg 38%
    16:00 +31°C° 0 mm 3 mps 752 mmHg 43%
    17:00 +30°C° 0 mm 3 mps 752 mmHg 47%
    18:00 +29°C° 0 mm 3 mps 752 mmHg 51%
    19:00 +28°C° 0 mm 2 mps 753 mmHg 54%
    20:00 +28°C° 0 mm 2 mps 753 mmHg 56%
    21:00 +28°C° 0 mm 2 mps 753 mmHg 58%
    22:00 +27°C° 0 mm 1 mps 753 mmHg 59%
    23:00 +27°C° 0 mm 1 mps 753 mmHg 60%

    27 September, Friday

    Time Temperature Precipitation Wind Pressure Humidity
    00:00 +26°C° 0 mm 1 mps 753 mmHg 61%
    01:00 +26°C° 0 mm 1 mps 753 mmHg 62%
    02:00 +25°C° 0 mm 1 mps 753 mmHg 64%
    03:00 +25°C° 0 mm 1 mps 753 mmHg 66%
    04:00 +25°C° 0 mm 1 mps 753 mmHg 67%
    05:00 +24°C° 0 mm 2 mps 753 mmHg 69%
    06:00 +24°C° 0 mm 2 mps 752 mmHg 70%
    07:00 +25°C° 0 mm 2 mps 753 mmHg 64%
    08:00 +26°C° 0 mm 1 mps 753 mmHg 58%
    09:00 +28°C° 0 mm 1 mps 753 mmHg 53%
    10:00 +29°C° 0 mm 1 mps 753 mmHg 49%
    11:00 +30°C° 0 mm 2 mps 753 mmHg 45%
    12:00 +32°C° 0 mm 2 mps 753 mmHg 41%
    13:00 +33°C° 0 mm 3 mps 753 mmHg 41%
    14:00 +33°C° 0 mm 3 mps 752 mmHg 42%
    15:00 +33°C° 0 mm 3 mps 752 mmHg 42%
    16:00 +31°C° 0 mm 3 mps 752 mmHg 46%
    17:00 +30°C° 0 mm 3 mps 752 mmHg 49%
    18:00 +29°C° 0 mm 3 mps 752 mmHg 53%
    19:00 +28°C° 0 mm 2 mps 752 mmHg 54%
    20:00 +28°C° 0 mm 2 mps 753 mmHg 56%
    21:00 +27°C° 0 mm 1 mps 753 mmHg 57%
    22:00 +27°C° 0 mm 1 mps 753 mmHg 58%
    23:00 +27°C° 0 mm 1 mps 753 mmHg 58%

    28 September, Saturday

    Time Temperature Precipitation Wind Pressure Humidity
    00:00 +26°C° 0 mm 1 mps 753 mmHg 59%
    01:00 +26°C° 0 mm 1 mps 753 mmHg 62%
    02:00 +25°C° 0 mm 1 mps 752 mmHg 65%
    03:00 +25°C° 0 mm 2 mps 752 mmHg 68%
    04:00 +24°C° 0 mm 2 mps 752 mmHg 70%
    05:00 +24°C° 0 mm 2 mps 752 mmHg 72%
    06:00 +24°C° 0 mm 2 mps 752 mmHg 73%
    07:00 +25°C° 0 mm 1 mps 752 mmHg 65%
    08:00 +27°C° 0 mm 1 mps 753 mmHg 56%
    09:00 +28°C° 0 mm 1 mps 753 mmHg 48%
    10:00 +29°C° 0 mm 2 mps 753 mmHg 45%
    11:00 +31°C° 0 mm 3 mps 753 mmHg 41%
    12:00 +33°C° 0 mm 3 mps 753 mmHg 38%
    13:00 +33°C° 0 mm 3 mps 752 mmHg 39%
    14:00 +33°C° 0 mm 4 mps 752 mmHg 40%
    15:00 +33°C° 0 mm 4 mps 752 mmHg 42%
    16:00 +32°C° 0 mm 4 mps 752 mmHg 45%
    17:00 +30°C° 0 mm 4 mps 751 mmHg 49%
    18:00 +29°C° 0 mm 4 mps 751 mmHg 53%
    19:00 +28°C° 0 mm 3 mps 752 mmHg 55%
    20:00 +28°C° 0 mm 3 mps 752 mmHg 58%
    21:00 +27°C° 0 mm 2 mps 752 mmHg 61%
    22:00 +27°C° 0 mm 2 mps 752 mmHg 63%
    23:00 +26°C° 0 mm 2 mps 752 mmHg 66%

    29 September, Sunday

    Time Temperature Precipitation Wind Pressure Humidity
    00:00 +26°C° 0 mm 1 mps 752 mmHg 68%
    01:00 +25°C° 0 mm 2 mps 752 mmHg 73%
    02:00 +25°C° 0 mm 2 mps 751 mmHg 77%
    03:00 +24°C° 0 mm 2 mps 751 mmHg 82%
    04:00 +24°C° 0 mm 2 mps 751 mmHg 84%
    05:00 +23°C° 0 mm 1 mps 751 mmHg 87%
    06:00 +23°C° 0 mm 1 mps 752 mmHg 90%
    07:00 +24°C° 0 mm 1 mps 752 mmHg 83%
    08:00 +25°C° 0 mm 1 mps 752 mmHg 76%
    09:00 +26°C° 0 mm 1 mps 752 mmHg 69%
    10:00 +28°C° 0 mm 1 mps 752 mmHg 63%
    11:00 +29°C° 0 mm 1 mps 752 mmHg 57%
    12:00 +30°C° 0 mm 2 mps 752 mmHg 51%
    13:00 +31°C° 0 mm 2 mps 752 mmHg 50%
    14:00 +31°C° 0 mm 2 mps 751 mmHg 49%
    15:00 +31°C° 0 mm 3 mps 751 mmHg 48%
    16:00 +30°C° 0 mm 3 mps 751 mmHg 52%
    17:00 +29°C° 0 mm 3 mps 751 mmHg 56%
    18:00 +28°C° 0 mm 3 mps 751 mmHg 60%
    19:00 +28°C° 0 mm 2 mps 751 mmHg 62%
    20:00 +27°C° 0 mm 1 mps 751 mmHg 65%
    21:00 +27°C° 0 mm 1 mps 752 mmHg 67%
    22:00 +26°C° 0 mm 1 mps 752 mmHg 69%
    23:00 +26°C° 0 mm 1 mps 751 mmHg 71%
    Show more